Miscellaneous Local Product
Issued by NWS Hastings, NE

Home | Current Version | Previous Version | Graphics & Text | Print | Product List | Glossary On
Versions: 1 2 3 4 5 6 7 8 9 10 11 12 13 14 15 16 17 18 19 20 21 22 23 24 25 26 27 28 29 30 31 32 33 34 35 36 37 38 39 40 41 42 43 44 45 46 47 48 49 50
000
AXUS43 KGID 292202
MISGRI

GID CWA HOURLY WEATHER ROUNDUP
NATIONAL WEATHER SERVICE HASTINGS NE
500 PM CDT FRI AUG 29 2014

NOTE: "FAIR" INDICATES FEW OR NO CLOUDS BELOW 12,000 FEET WITH NO
SIGNIFICANT WEATHER AND/OR OBSTRUCTIONS TO VISIBILITY.

...SOUTH CENTRAL NEBRASKA...

CITY           SKY/WX    TMP DP  RH WIND       PRES   REMARKS
GRAND ISLAND   CLOUDY    69  65  86 W3        29.83F
HASTINGS       MOSUNNY   72  62  71 CALM      29.84S THUNDER
KEARNEY        SUNNY     82  57  42 NW14G22   29.85S
ORD            MOSUNNY   80  64  58 NW10      29.82F
YORK           LGT RAIN  70 N/A N/A SW6       29.81F
AURORA         CLOUDY    71  69  96 NW3       29.81F
LEXINGTON      MOSUNNY   83  59  44 N5        29.86S
HOLDREGE       SUNNY     82  57  43 NW6G16    29.86S
HEBRON         PTSUNNY   78  65  64 W6        29.82S

...NEBRASKA PANHANDLE...

CITY           SKY/WX    TMP DP  RH WIND       PRES   REMARKS
CHADRON        MOSUNNY   76  55  48 NE12      29.99F
ALLIANCE       MOSUNNY   77  52  41 N14       30.01S
SCOTTSBLUFF    MOSUNNY   82  51  34 NE8       30.00F
SIDNEY         MOSUNNY   83  49  30 N16       30.02S

...WESTERN AND NORTH CENTRAL NEBRASKA...

CITY           SKY/WX    TMP DP  RH WIND       PRES   REMARKS
VALENTINE      MOSUNNY   81  60  48 NW23G31   29.89R
AINSWORTH      MOSUNNY   78  60  53 NW9       29.85F
ONEILL         MOSUNNY   77  68  73 N10       29.83F
BROKEN BOW     SUNNY     83  59  44 N12G22    29.85S
IMPERIAL       SUNNY     84  53  34 N14G22    29.93S
NORTH PLATTE   MOSUNNY   83  56  39 N9        29.87S
MCCOOK         SUNNY     87  54  32 N8        29.88S

...EASTERN NEBRASKA...

CITY           SKY/WX    TMP DP  RH WIND       PRES   REMARKS
NORFOLK        CLOUDY    76  67  73 NW10      29.78R
SO SIOUX CITY  CLOUDY    74  67  78 NW3       29.76F
TEKAMAH        HVY RAIN  68  66  93 CALM      29.77R VSB 1
COLUMBUS       CLOUDY    73  66  78 W7        29.78F
ALBION         CLOUDY    69  66  89 NW6       29.81R
OMAHA EPPLEY   HVY RAIN  69  66  90 W5        29.79R FOG
OFFUTT AFB     RAIN      69  69 100 VRB2G16   29.78R
MILLARD        LGT RAIN  72  68  87 CALM      29.78R
LINCOLN        CLOUDY    72  64  76 W6        29.80S
NEBRASKA CITY  PTSUNNY   74  71  93 S6        29.80R
BEATRICE       CLOUDY    71  68  90 SW5       29.80S
FALLS CITY     MOSUNNY   83  67  58 SW7       29.77F

...NORTHERN KANSAS...

CITY           SKY/WX    TMP DP  RH WIND       PRES   REMARKS
GOODLAND       SUNNY     84  44  24 N14G23    29.97R
HILL CITY      SUNNY     86  52  30 N10G18    29.87R
NORTON         CLEAR     88  45  22 N13G18    29.86R
PHILLIPSBURG   SUNNY     86  50  28 NW13      29.85R
SMITH CENTER   SUNNY     81  61  50 NW6       29.84S
BELOIT         SUNNY     84  64  51 W6        29.81R
HAYS           MOSUNNY   84  57  39 N9        29.85S
RUSSELL        MOSUNNY   86  61  42 W8        29.82F
CONCORDIA      MOSUNNY   81  67  62 W9        29.81F
SALINA         SUNNY     88  58  36 W13       29.81S
TOPEKA         MOSUNNY   89  66  46 S13       29.77F HX  91



USA.gov is the U.S. government's official web portal to all federal, state and local government web resources and services.